COSMOS 2269

Satellite information

Favourite Embed

Satellite Type and Status

PAYLOADIN ORBIT

Key statistics

Satellite COSMOS 2269 at a glance.

Uptime

11585

Days in orbit

Revolutions

≈ 12.6

Per day

Orbit

LEO

Low Earth Orbit

Inclination

82.6

Latest

Satellite identification and parameters

Extended collection of information and parameters for COSMOS 2269.

Object identification

Identified? True

Debris? False

Object name: COSMOS 2269

International designator: 1994-011B

Object number (NORAD): 23000

Object ID (CCSDS): 23000

Country: COMMONWEALTH OF INDEPENDENT STATES (CIS)

Current information (Y/N): Y

RCS size: LARGE

Orbital parameters

Period: 114.11 minutes

Inclination: 82.5634 deg

SMA: 7793.099 km

Apoapsis: 1420.291 km

Periapsis: 1409.636 km

RAAN: 106.9246 deg

Eccentricy: 0.0006836

Argument of periapsis: 354.7225 deg

Mean anomaly: 116.0236 deg

Mean motion: 12.61936449 rev/day

Mean motion (dot): 0.00000059 rev/day2

B* drag term: 0.00026993 1/REarth

Two-line elements (TLE)

Creation date: Oct. 31, 2025, 11:16 p.m.

Reference frame: TEME

Reference center: EARTH

Epoch: Oct. 31, 2025, 8:38 p.m. UTC

TLE line 0: 0 COSMOS 2269

TLE line 1: 1 23000U 94011B 25304.85979985 .00000059 00000-0 26993-3 0 9990

TLE line 2: 2 23000 82.5634 106.9246 0006836 354.7225 116.0236 12.61936449460873

Live tracking on map

Real-time ground track for satellite COSMOS 2269.

In-orbit conjunctions

There are no conjunctions computed for COSMOS 2269, at the moment. Check back to stay up to date, as we update our databases every day.

Go to all conjunctions

Associated space launch

Second generation store-dump military communications satellites

COSMOS 2269 was lifted into orbit during the mission ‘Tsiklon-3 | Strela-3 101 to 106’, on board a Tsiklon-3 space rocket.

The launch took place on Feb. 12, 1994, 8:54 a.m. from 32/1.

For more information about the launch, click the button.

Launch to space Tsiklon-3 | Strela-3 101 to 106
Tsiklon-3 | Strela-3 101 to 106

Agency: N/A

Status: Launch Successful

Launch date: Feb. 12, 1994, 8:54 a.m. UTC

Rocket: Tsiklon-3

Launch pad: 32/1

Location: Plesetsk Cosmodrome, Russian Federation

...

Latest news about this satellite

There are no fresh news available about this satellite. Check back as we update our databases every day.


Newsletter sign-up

Weekly statistics, charts and insights to help you stay on top of the space industry.